This is the latest recevied weather packets stored in our database for station/object EB1BWO-11. If no packets are shown the sender has not sent any weather packets the latest 10 day(s).
| Time | Temp. | Humidity | Pressure | Rain* | Wind** | Luminosity | Snow |
|---|---|---|---|---|---|---|---|
| 1777850783 | 12.22° C | 80% | 1017.3 hPa | - | - | - | - |
| 1777849883 | 12.78° C | 79% | 1017.4 hPa | - | - | - | - |
| 1777848983 | 12.78° C | 80% | 1017.4 hPa | - | - | - | - |
| 1777848083 | 12.78° C | 79% | 1017.3 hPa | - | - | - | - |
| 1777847183 | 13.33° C | 79% | 1017.2 hPa | - | - | - | - |
| 1777846282 | 13.33° C | 79% | 1017.2 hPa | - | - | - | - |
| 1777845382 | 13.33° C | 79% | 1017.2 hPa | - | - | - | - |
| 1777844482 | 13.33° C | 79% | 1017.1 hPa | - | - | - | - |
| 1777843582 | 13.33° C | 79% | 1017.2 hPa | - | - | - | - |
| 1777842682 | 13.33° C | 79% | 1017.1 hPa | - | - | - | - |
| 1777841782 | 13.33° C | 79% | 1017 hPa | - | - | - | - |
| 1777840881 | 12.78° C | 80% | 1016.8 hPa | - | - | - | - |
| 1777839981 | 12.22° C | 80% | 1016.6 hPa | - | - | - | - |
| 1777839081 | 12.22° C | 80% | 1016.5 hPa | - | - | - | - |
| 1777838181 | 12.22° C | 81% | 1016.4 hPa | - | - | - | - |
| 1777837281 | 12.22° C | 82% | 1016.4 hPa | - | - | - | - |
| 1777836381 | 12.22° C | 81% | 1016.1 hPa | - | - | - | - |
| 1777835481 | 12.78° C | 82% | 1015.9 hPa | - | - | - | - |
| 1777834581 | 12.78° C | 81% | 1015.8 hPa | - | - | - | - |
| 1777833680 | 13.33° C | 80% | 1015.4 hPa | - | - | - | - |
| 1777832780 | 14.44° C | 80% | 1015.1 hPa | - | - | - | - |
| 1777831883 | 14.44° C | 79% | 1014.9 hPa | - | - | - | - |
| 1777830980 | 15.56° C | 78% | 1014.7 hPa | - | - | - | - |
| 1777830080 | 15.56° C | 77% | 1014.5 hPa | - | - | - | - |
| 1777829180 | 16.11° C | 77% | 1014.5 hPa | - | - | - | - |
* Rain since midnight (hover to see other rain measurements)
** Current wind speed in m/s (hover to see current wind gust speed)